Location: Dompnac
(44.5644°N, 4.1026°E)
Time: 04:18:44
(UTC+00:00)

Cosmos 2082 Rocket - Pass Details

Date: 27 June 2021
Orbit: 832 x 855 km, 71.0° (Epoch: 03 August)

Event Time Altitude Azimuth Distance (km) Brightness Sun altitude
Exits shadow 03:06:35 10° 219° (SW) 2,449 3.9 -8.2°
Reaches altitude 10° 03:06:37 10° 219° (SW) 2,434 3.9 -8.2°
Maximum altitude 03:12:08 60° 299° (WNW) 954 2.4 -7.5°
Drops below altitude 10° 03:17:41 10° 19° (NNE) 2,456 5.7 -6.8°
Sets 03:20:11 0° 23° (NNE) 3,397 6.7 -6.5°
